User: anonymous   Login
Location: Valdosta
(30.8330°N, 83.2790°W)
Time: 22:05:55
(UTC-04:00)
Language:

Oscar 19 - Orbit

View from above orbital plane
View from above orbital plane
View from above satellite
View from above satellite

Ground track
Ground track

The orbit data is extracted from the following two-line orbital elements,

1 20442U 90005G   15116.80373541  .00000216  00000-0  95159-4 0  9993
2 20442 098.5087 053.4737 0010813 304.2882 055.7278 14.32722850319584
Epoch (UTC): 26 April 2015 19:17:22
Eccentricity: 0.0010813
inclination: 98.5087°
perigee height: 775 km
apogee height: 790 km
right ascension of ascending node: 53.4737°
argument of perigee: 304.2882°
revolutions per day: 14.32722850
mean anomaly at epoch: 55.7278°
orbit number at epoch: 31958

The dashed part of the orbit path shows where the satellite is in the earth's shadow,  

DLR